User: anonymous
Location: Houston
(29.7630°N, 95.3630°W)
Time: 19:33:43
(UTC-05:00)
Language:

Saudisat 1A - Orbit

View from above orbital plane
View from above orbital plane
View from above satellite
View from above satellite

Ground track
Ground track

The orbit data is extracted from the following two-line orbital elements,

1 26546U 00057B   14292.81817305  .00002276  00000-0  26108-3 0  4044
2 26546 064.5549 132.5341 0007029 309.6800 050.3688 14.88353040761944
Epoch (UTC): 19 October 2014 19:38:10
Eccentricity: 0.0007029
inclination: 64.5549°
perigee height: 598 km
apogee height: 608 km
right ascension of ascending node: 132.5341°
argument of perigee: 309.6800°
revolutions per day: 14.88353040
mean anomaly at epoch: 50.3688°
orbit number at epoch: 76194

The dashed part of the orbit path shows where the satellite is in the earth's shadow,  

DLR